Home > Weather > Mobile > Past weeks

Flag for U.S.A. Weather for the Past 2 Weeks in Mobile, Alabama, U.S.A.

Now
58 °F

Sunny.


Feels Like: 55 °F
Forecast: 41 / 57 °F
Wind: 12 mph from West

Location: Mobile Downtown Airport

Current Time: Feb 8, 2016 at 11:33:22 AM

Latest Report: Feb 8, 2016 at 10:53 AM


Visibility: 10 mi

Pressure: 30.00 "Hg

Humidity: 46%

Dew point: 37 °F

Location of MobileLocation

Historic Weather in Mobile — Graph

°F

Mobile Temperature Yesterday

Maximum temperature yesterday: 57 °F (at 12:53 PM)
Minimum temperature yesterday: 34 °F (at 6:53 AM)
Average temperature yesterday: 47 °F

High & Low Weather Summary for the Past Weeks

 TemperatureHumidityPressure
High68 °F (Jan 31, 11:53 AM)100% (Jan 25, 1:53 AM)30.51 "Hg (Jan 25, 1:53 AM)
Low32 °F (Feb 5, 6:53 AM)25% (Feb 5, 2:53 PM)29.85 "Hg (Feb 3, 2:53 AM)
Average52 °F75%30.12 "Hg
* Reported Jan 24 9:53 AM — Feb 8 9:53 AM, Mobile, Weather by CustomWeather, © 2016

Note: Actual official high and low records may vary slightly from our data, if they occured in-between our weather recording intervals... More about our weather records

Advertising

Mobile Weather History for the Previous 24 Hours

 ConditionsComfort  
Time TempWeatherWind HumidityBarometerVisibility
9:53 AM
Mon, Feb 8
56 °FSunny.9 mph53%30.04 "Hg10 mi
8:53 AM52 °FSunny.10 mph64%30.05 "Hg10 mi
7:53 AM48 °FSunny.9 mph71%30.03 "Hg10 mi
6:53 AM44 °FSunny.7 mph76%30.05 "Hg10 mi
5:53 AM45 °FClear.8 mph71%30.06 "Hg10 mi
4:53 AM45 °FClear.9 mph68%30.05 "Hg10 mi
3:53 AM45 °FClear.7 mph65%30.06 "Hg10 mi
2:53 AM45 °FClear.6 mph65%30.08 "Hg10 mi
1:53 AM46 °FClear.8 mph68%30.09 "Hg10 mi
12:53 AM45 °FClear.5 mph76%30.11 "Hg10 mi
11:53 PM
Sun, Feb 7
47 °FClear.3 mph71%30.14 "Hg10 mi
10:53 PM47 °FClear.5 mph69%30.14 "Hg10 mi
9:53 PM48 °FClear.6 mph63%30.14 "Hg10 mi
8:53 PM48 °FClear.6 mph61%30.15 "Hg10 mi
7:53 PM49 °FClear.7 mph55%30.15 "Hg10 mi
6:53 PM50 °FClear.7 mph52%30.15 "Hg10 mi
5:53 PM52 °FClear.5 mph49%30.13 "Hg10 mi
4:53 PM54 °FSunny.5 mph45%30.12 "Hg10 mi
3:53 PM57 °FSunny.5 mph28%30.12 "Hg10 mi
2:53 PM57 °FSunny.7 mph31%30.12 "Hg10 mi
1:53 PM57 °FSunny.8 mph32%30.15 "Hg10 mi
12:53 PM57 °FSunny.10 mph31%30.20 "Hg10 mi
11:53 AM56 °FSunny.8 mph30%30.24 "Hg10 mi
Weather by CustomWeather, © 2016

See weather overviewHow to use our weather pages